This demonstration page uses our WeatherBlox Daily Observations layout. Learn more.

Left ArrowRight Arrow

31.84235, -102.49876

Hourly Observations for March 14, 2018

Temp ( °F °C ) Dew Point ( °F °C ) Humidity (%) Winds ( mph kmh ) Pressure ( in mb ) Visibility ( mi km ) Precip ( " mm )
12:53 am 00:53 Clear 51 10.6 22 -5.6 32 32 ESE 12 19 30.22 1023 10 16 0.00 0.00
1:53 am 01:53 Clear 49 9.4 22 -5.6 35 35 ESE 12 19 30.22 1023 10 16 0.00 0.00
2:53 am 02:53 Clear 47 8.3 22 -5.6 37 37 ESE 12 19 30.22 1024 10 16 0.00 0.00
3:53 am 03:53 Clear 46 7.8 22 -5.6 38 38 ESE 12 19 30.21 1023 10 16 0.00 0.00
4:53 am 04:53 Clear 45 7.2 21 -6.1 39 39 SE 12 19 30.20 1023 10 16 0.00 0.00
5:53 am 05:53 Clear 43 6.1 20 -6.7 40 40 ESE 10 17 30.20 1023 10 16 0.00 0.00
6:53 am 06:53 Clear 42 5.6 20 -6.7 41 41 ESE 10 17 30.19 1022 10 16 0.00 0.00
7:53 am 07:53 Clear 40 4.4 20 -6.7 45 45 SE 7 11 30.21 1023 10 16 0.00 0.00
8:53 am 08:53 Sunny 44 6.7 20 -6.7 38 38 SE 10 17 30.22 1023 10 16 0.00 0.00
9:53 am 09:53 Sunny 50 10 24 -4.4 36 36 S 15 24 30.21 1023 10 16 0.00 0.00
10:53 am 10:53 Sunny 56 13.3 27 -2.8 33 33 S 15 24 30.20 1023 10 16 0.00 0.00
11:53 am 11:53 Sunny 59 15 28 -2.2 31 31 S 22 35 30.19 1022 10 16 0.00 0.00
12:53 pm 12:53 Sunny 63 17.2 27 -2.8 26 26 S 20 31 30.15 1021 10 16 0.00 0.00
1:53 pm 13:53 Sunny 65 18.3 28 -2.2 25 25 S 21 33 30.11 1020 10 16 0.00 0.00
2:53 pm 14:53 Sunny 67 19.4 28 -2.2 23 23 S 18 30 30.06 1018 10 16 0.00 0.00
3:53 pm 15:53 Sunny 69 20.6 28 -2.2 22 22 S 17 28 30.02 1017 10 16 0.00 0.00
4:53 pm 16:53 Sunny 69 20.6 29 -1.7 22 22 S 17 28 29.99 1016 10 16 0.00 0.00
5:53 pm 17:53 Sunny 68 20 30 -1.1 24 24 SSE 18 30 29.98 1015 10 16 0.00 0.00
6:53 pm 18:53 Sunny 65 18.3 29 -1.7 26 26 S 20 31 29.98 1015 10 16 0.00 0.00
7:53 pm 19:53 Sunny 61 16.1 30 -1.1 31 31 S 23 37 29.99 1016 10 16 0.00 0.00
8:53 pm 20:53 Clear 59 15 32 0 36 36 SSE 20 31 29.99 1016 10 16 0.00 0.00
9:53 pm 21:53 Clear 57 13.9 33 0.6 41 41 S 15 24 29.99 1016 10 16 0.00 0.00
10:53 pm 22:53 Clear 56 13.3 33 0.6 42 42 SSE 14 22 29.98 1015 10 16 0.00 0.00
11:53 pm 23:53 Clear 54 12.2 33 0.6 45 45 S 15 24 29.97 1015 10 16 0.00 0.00

Powered by AerisWeather